Starlink 11083

operational
NORAD ID: 59424 Int'l Des: 2024-065 Owner: SPXS Country: US Constellation: starlink
LEOCIRCULAR

关于 Starlink 11083

正在加载描述...

实时位置

正在加载3D地球...

即将过境

高度历史

Altitude vs Time

uPlot chart will show altitude changes over time

两行轨道根数

1 59424U 24065D 25351.63029527 .00000154 00000-0 61294-5 0 9998
2 59424 53.1605 138.4893 0001387 117.5719 242.5440 15.69713000 98585
Epoch: Dec 17, 2025 • Age: 19 hours

当前状态

高度 365.3 km
速度 7.70 km/s
星下点 52.75°N, 0.83°E
发射日期 Apr 7, 2024
运行时间 1.6 years
类型 internet

技术详情

分类 Payload
质量 960.00 kg
干质量 910.00 kg
总质量 960.00 kg
长度 0.30 m
直径 4.10 m
跨度 29.00 m
形状 Box + pan
制造商 SPXS
平台类型 Starlink V2MD
阶段状态 In Orbit
所有者/国家 SPXS/US

大型星座

Loading constellations...